FW4761 Weather Reports


Display with metric or nautical units.
time (UTC)temp
F
wind
direction
speed
MPH
gust
MPH
rain 1hr
in
rain 24hr
in
rain mn
in
humidity
%
barometer
mb
20260504173634 76 186 14.0 29.0 0.00 0.00 0.00 61 974.5
20260504173134 76 211 14.0 24.0 0.00 0.00 0.00 61 974.5
20260504172634 76 176 14.0 24.0 0.00 0.00 0.00 61 974.5
20260504172134 76 198 15.0 27.0 0.00 0.00 0.00 61 974.6
20260504171634 75 186 14.0 27.0 0.00 0.00 0.00 61 974.8
20260504171135 75 172 12.0 24.0 0.00 0.00 0.00 61 974.8
20260504170634 75 173 13.0 26.0 0.00 0.00 0.00 62 975.0
20260504170133 75 162 14.0 26.0 0.00 0.00 0.00 62 974.9
20260504141029 67 186 13.0 22.0 0.00 0.00 0.00 70 976.5
20260504140529 67 215 12.0 25.0 0.00 0.00 0.00 70 976.3
20260504130518 62 221 7.0 14.0 0.00 0.00 0.00 74 976.2
20260504110420 61 224 6.0 15.0 0.00 0.00 0.00 71 975.9
20260504100309 60 223 5.0 11.0 0.00 0.00 0.00 71 976.6
20260504050447 64 225 4.0 9.0 0.00 0.00 0.00 61 979.2
20260504045445 64 209 5.0 11.0 0.00 0.00 0.00 60 979.2
20260504044945 65 208 5.0 11.0 0.00 0.00 0.00 60 979.2
20260504044445 65 183 5.0 11.0 0.00 0.00 0.00 59 979.3
20260504043946 65 198 6.0 10.0 0.00 0.00 0.00 59 979.3
20260504043448 65 228 6.0 11.0 0.00 0.00 0.00 58 979.4
20260504042941 65 233 5.0 11.0 0.00 0.00 0.00 58 979.4
20260504041930 65 224 5.0 13.0 0.00 0.00 0.00 57 979.4
20260504041425 66 215 5.0 10.0 0.00 0.00 0.00 57 979.6
20260504040919 66 240 5.0 12.0 0.00 0.00 0.00 56 979.5
20260504035907 66 202 5.0 9.0 0.00 0.00 0.00 57 979.7
20260504035400 66 207 4.0 9.0 0.00 0.00 0.00 57 979.7
20260504034852 65 213 4.0 9.0 0.00 0.00 0.00 57 979.8
20260504034347 66 213 4.0 9.0 0.00 0.00 0.00 57 979.7
20260504033348 66 217 4.0 11.0 0.00 0.00 0.00 56 979.7
20260504032847 66 218 4.0 10.0 0.00 0.00 0.00 56 979.7
20260504032347 66 204 4.0 8.0 0.00 0.00 0.00 56 979.7
20260504031345 67 218 4.0 9.0 0.00 0.00 0.00 55 979.6
20260504030846 67 214 5.0 9.0 0.00 0.00 0.00 55 979.6
20260504025843 68 215 5.0 9.0 0.00 0.00 0.00 54 979.5
20260504025345 68 208 5.0 8.0 0.00 0.00 0.00 54 979.5
20260504024841 68 213 4.0 8.0 0.00 0.00 0.00 53 979.5
20260504023842 69 198 6.0 10.0 0.00 0.00 0.00 52 979.3
20260504023341 69 200 6.0 9.0 0.00 0.00 0.00 52 979.4
20260504022840 70 206 5.0 9.0 0.00 0.00 0.00 50 979.3
20260504022339 70 202 5.0 10.0 0.00 0.00 0.00 49 979.3
20260504021833 70 215 4.0 10.0 0.00 0.00 0.00 50 979.2
20260504021327 70 200 4.0 8.0 0.00 0.00 0.00 50 979.1
20260504020820 69 199 3.0 6.0 0.00 0.00 0.00 51 979.1
20260504020314 69 212 3.0 5.0 0.00 0.00 0.00 51 979.1
20260504015809 69 213 3.0 5.0 0.00 0.00 0.00 52 979.0
20260504015304 70 211 3.0 5.0 0.00 0.00 0.00 51 979.1
20260504014757 70 209 3.0 5.0 0.00 0.00 0.00 51 979.1
20260504014251 70 211 3.0 5.0 0.00 0.00 0.00 50 979.0
20260504013745 71 219 2.0 5.0 0.00 0.00 0.00 50 979.0
20260504013238 71 217 2.0 5.0 0.00 0.00 0.00 49 979.0
20260504012732 71 0 2.0 5.0 0.00 0.00 0.00 48 978.9
20260504012226 72 217 2.0 5.0 0.00 0.00 0.00 47 978.9
20260504011720 72 0 2.0 5.0 0.00 0.00 0.00 46 979.0
20260504011215 73 0 2.0 5.0 0.00 0.00 0.00 46 978.9
20260504010709 74 192 2.0 6.0 0.00 0.00 0.00 44 978.9
20260504010203 74 191 3.0 6.0 0.00 0.00 0.00 44 978.8
20260504005657 75 191 3.0 7.0 0.00 0.00 0.00 42 978.9
20260504005151 75 190 4.0 8.0 0.00 0.00 0.00 41 978.9
20260504004645 76 191 4.0 8.0 0.00 0.00 0.00 40 978.9
20260504003633 77 213 4.0 8.0 0.00 0.00 0.00 39 978.9
20260504003127 77 202 3.0 7.0 0.00 0.00 0.00 39 978.9
20260504002621 78 202 4.0 12.0 0.00 0.00 0.00 38 978.9
20260504002117 78 211 5.0 12.0 0.00 0.00 0.00 37 979.0
20260504001617 78 205 4.0 8.0 0.00 0.00 0.00 38 979.0
20260504001117 78 209 5.0 12.0 0.00 0.00 0.00 37 979.1
20260504000616 78 217 6.0 13.0 0.00 0.00 0.00 36 979.0
20260504000115 79 209 7.0 13.0 0.00 0.00 0.00 34 979.2
20260503235614 79 195 9.0 17.0 0.00 0.00 0.00 34 979.2
20260503235115 79 193 8.0 17.0 0.00 0.00 0.00 33 979.2
20260503234615 80 175 8.0 16.0 0.00 0.00 0.00 35 979.3
20260503234115 80 196 9.0 16.0 0.00 0.00 0.00 34 979.3
20260503233115 80 213 9.0 18.0 0.00 0.00 0.00 33 979.3
20260503232614 80 212 9.0 17.0 0.00 0.00 0.00 33 979.4
20260503231615 81 212 9.0 18.0 0.00 0.00 0.00 32 979.5
20260503231114 81 212 8.0 17.0 0.00 0.00 0.00 32 979.4
20260503230616 82 224 7.0 16.0 0.00 0.00 0.00 32 979.4
20260503230112 81 202 7.0 16.0 0.00 0.00 0.00 33 979.3
20260503225616 81 227 7.0 16.0 0.00 0.00 0.00 33 979.5
20260503225111 81 251 8.0 16.0 0.00 0.00 0.00 33 979.6
20260503224605 81 213 9.0 16.0 0.00 0.00 0.00 34 979.5
20260503224059 81 257 9.0 16.0 0.00 0.00 0.00 33 979.6
20260503223557 81 161 10.0 17.0 0.00 0.00 0.00 34 979.6
20260503223056 82 197 9.0 17.0 0.00 0.00 0.00 33 979.6
20260503222556 82 216 8.0 16.0 0.00 0.00 0.00 32 979.6
20260503222056 82 215 8.0 15.0 0.00 0.00 0.00 32 979.7
20260503221555 82 181 9.0 18.0 0.00 0.00 0.00 33 979.7
20260503221053 82 212 9.0 18.0 0.00 0.00 0.00 32 979.9
20260503220052 82 245 9.0 18.0 0.00 0.00 0.00 31 979.9
20260503215053 82 194 8.0 15.0 0.00 0.00 0.00 32 980.1
20260503214553 82 229 8.0 18.0 0.00 0.00 0.00 32 980.0
20260503214052 82 226 7.0 18.0 0.00 0.00 0.00 33 980.1
20260503212049 82 229 9.0 24.0 0.00 0.00 0.00 31 980.4
20260503211048 82 223 8.0 16.0 0.00 0.00 0.00 33 980.7
20260503210549 82 210 9.0 16.0 0.00 0.00 0.00 33 980.7
20260503205549 82 205 9.0 20.0 0.00 0.00 0.00 34 980.8
20260503205049 81 162 8.0 20.0 0.00 0.00 0.00 35 980.9
20260503204549 81 213 8.0 17.0 0.00 0.00 0.00 35 980.9
20260503204044 81 249 9.0 18.0 0.00 0.00 0.00 35 981.1
20260503203544 82 236 9.0 18.0 0.00 0.00 0.00 35 981.3
20260503203045 81 161 10.0 21.0 0.00 0.00 0.00 36 981.3
20260503202545 81 184 10.0 21.0 0.00 0.00 0.00 35 981.4
20260503202044 82 212 8.0 18.0 0.00 0.00 0.00 35 981.5
20260503201548 82 227 8.0 24.0 0.00 0.00 0.00 33 981.7
20260503201049 82 234 8.0 24.0 0.00 0.00 0.00 32 981.7
20260503200549 82 223 9.0 26.0 0.00 0.00 0.00 33 981.8
20260503200049 82 193 11.0 26.0 0.00 0.00 0.00 32 981.9
20260503195541 82 206 10.0 20.0 0.00 0.00 0.00 33 981.9
20260503193537 82 270 9.0 15.0 0.00 0.00 0.00 35 982.1
20260503192536 82 199 8.0 17.0 0.00 0.00 0.00 34 982.3
20260503191536 82 251 7.0 19.0 0.00 0.00 0.00 35 982.3
20260503191036 82 233 9.0 16.0 0.00 0.00 0.00 33 982.5
20260503190036 82 191 7.0 16.0 0.00 0.00 0.00 35 982.5
20260503185536 82 245 7.0 18.0 0.00 0.00 0.00 33 982.6
20260503185037 82 236 8.0 18.0 0.00 0.00 0.00 35 982.6
20260503184536 82 215 8.0 15.0 0.00 0.00 0.00 34 982.7
20260503184037 80 244 9.0 17.0 0.00 0.00 0.00 34 982.8
20260503183535 81 268 9.0 17.0 0.00 0.00 0.00 34 982.8
20260503183033 81 222 10.0 20.0 0.00 0.00 0.00 36 982.8
20260503182527 81 238 8.0 20.0 0.00 0.00 0.00 36 982.9
20260503182022 81 205 8.0 14.0 0.00 0.00 0.00 40 983.1
20260503181516 81 288 8.0 14.0 0.00 0.00 0.00 39 983.0
20260503181010 81 263 8.0 16.0 0.00 0.00 0.00 39 983.2
20260503180504 81 219 7.0 16.0 0.00 0.00 0.00 39 983.2
20260503175958 81 244 7.0 15.0 0.00 0.00 0.00 42 983.3
20260503174945 80 233 7.0 16.0 0.00 0.00 0.00 42 983.5
20260503174440 80 241 7.0 16.0 0.00 0.00 0.00 43 983.6